BEIDOU-3 M6 (C22)

Last updated on Mon Feb 13 2023 00:03:21 GMT+0000 (Coordinated Universal Time)

1 43208U 18018B 23042.69908340 -.00000004 00000+0 00000+0 0 9998 2 43208 55.6589 103.7797 0008528 296.1901 63.7992 1.86231826 33999

Satellite not in orbit

BEIDOU-3 M6 (C22)